1483574400.14,36373,7.75,71298.5,-16.51,-17.69,-17.69,0,*61
1483574401.37,36374,7.75,71306.5,-16.53,-17.73,-17.73,0,*64
1483574402.65,36375,7.75,71310.0,-16.51,-17.87,-17.97,0,*66
1483574403.94,36376,7.75,71264.8,-16.53,-17.93,-18.01,0,*62
1483574405.2,36377,7.75,71252.3,-16.53,-17.93,-17.87,0,*62
1483574406.46,36378,7.75,71240.3,-16.53,-17.79,-17.73,0,*62
1483574407.7,36379,7.75,71240.0,-16.51,-17.83,-17.73,0,*64
1483574408.97,36380,7.75,71274.0,-16.53,-17.87,-17.79,0,*6E
1483574410.25,36381,7.75,71266.3,-16.53,-17.63,-17.63,0,*6E
1483574411.5,36382,7.75,71244.3,-16.53,-18.01,-18.17,0,*6A
1483574412.74,36383,7.75,71250.8,-16.53,-18.21,-18.21,0,*6C
1483574414.02,36384,7.75,71280.8,-16.53,-18.01,-17.93,0,*6F
1483574415.31,36385,7.75,71278.5,-16.53,-18.01,-18.01,0,*6A
1483574416.59,36386,7.75,71236.0,-16.53,-18.01,-17.93,0,*6D
1483574417.83,36387,7.75,71260.3,-16.53,-18.21,-18.21,0,*68
1483574419.09,36388,7.75,71274.5,-16.53,-18.31,-18.21,0,*66
1483574420.36,36389,7.75,71164.3,-16.53,-18.31,-18.21,0,*67
1483574421.59,36390,7.75,71174.3,-16.57,-18.21,-18.21,0,*6A
1483574422.86,36391,7.75,71212.3,-16.55,-18.01,-17.93,0,*6D
1483574424.11,36392,7.75,71254.5,-16.55,-17.79,-17.79,0,*6A
1483574425.37,36393,7.75,71264.0,-16.55,-18.01,-17.93,0,*6F
1483574426.61,36394,7.75,71266.0,-16.55,-17.93,-17.87,0,*69
1483574427.86,36395,7.75,71258.8,-16.55,-17.79,-17.87,0,*6C
1483574429.1,36396,7.75,71244.3,-16.57,-18.21,-18.07,0,*68
1483574430.36,36397,7.75,71236.5,-16.55,-18.35,-18.35,0,*6F
1483574431.63,36398,7.75,71264.5,-16.57,-17.93,-17.87,0,*67
1483574432.89,36399,7.75,71234.0,-16.55,-17.79,-17.79,0,*61
1483574434.13,36400,7.75,71240.5,-16.57,-17.87,-17.87,0,*64
1483574435.37,36401,7.75,71266.0,-16.57,-17.73,-17.73,0,*65
1483574436.63,36402,7.75,71270.5,-16.57,-17.79,-17.73,0,*6C
1483574437.89,36403,7.75,71276.0,-16.55,-17.79,-17.79,0,*65
1483574439.17,36404,7.75,71276.0,-16.57,-17.79,-17.79,0,*60
1483574440.38,36405,7.75,71286.3,-16.55,-17.73,-17.73,0,*63
1483574441.64,36406,7.75,71284.5,-16.55,-17.63,-17.63,0,*60
1483574442.89,36407,7.75,71286.5,-16.55,-17.79,-17.79,0,*61
1483574444.16,36408,7.75,71282.3,-16.57,-17.93,-17.87,0,*69
1483574445.42,36409,7.75,71268.3,-16.55,-17.93,-17.93,0,*6F
1483574446.68,36410,7.75,71280.0,-16.57,-17.79,-17.73,0,*6F
1483574447.89,36411,7.75,71298.3,-16.55,-17.73,-17.73,0,*66
1483574449.15,36412,7.75,71308.0,-16.57,-17.79,-17.73,0,*6D
1483574450.37,36413,7.75,71308.5,-16.55,-17.87,-17.87,0,*64
1483574451.65,36414,7.75,71302.5,-16.57,-18.01,-17.93,0,*65
1483574452.92,36415,7.75,71290.8,-16.55,-18.01,-18.01,0,*62
1483574454.16,36416,7.75,71288.8,-16.57,-18.07,-18.07,0,*63
1483574455.4,36417,7.75,71262.0,-16.57,-18.17,-18.17,0,*62
1483574456.64,36418,7.75,71232.0,-16.59,-18.25,-18.35,0,*62
1483574457.91,36419,7.75,71236.5,-16.57,-18.45,-18.31,0,*6F
1483574459.15,36420,7.75,71238.5,-16.59,-18.07,-17.97,0,*6E
1483574460.42,36421,7.75,71248.8,-16.57,-17.93,-17.87,0,*62
1483574461.71,36422,7.75,71252.8,-16.57,-18.01,-17.93,0,*60
1483574462.97,36423,7.75,71256.3,-16.59,-17.97,-17.93,0,*6F
1483574464.22,36424,7.75,71260.5,-16.59,-17.93,-17.83,0,*6D
1483574465.44,36425,7.75,71226.8,-16.59,-17.83,-17.69,0,*69
1483574466.65,36426,7.75,71216.5,-16.59,-17.69,-17.69,0,*6E
1483574467.94,36427,7.75,71232.8,-16.57,-17.63,-17.63,0,*61
1483574469.2,36428,7.75,71248.5,-16.59,-17.63,-17.63,0,*60
1483574470.44,36429,7.75,71284.8,-16.57,-17.49,-17.49,0,*6F
1483574471.7,36430,7.75,71300.8,-16.57,-17.49,-17.59,0,*66
1483574472.97,36431,7.75,71300.8,-16.57,-17.59,-17.49,0,*67
1483574474.23,36432,7.75,71290.0,-16.59,-17.63,-17.63,0,*6B
1483574475.49,36433,7.75,71280.8,-16.59,-17.63,-17.55,0,*6F
1483574476.75,36434,7.75,71284.8,-16.59,-17.55,-17.55,0,*6D
1483574478.01,36435,7.75,71284.3,-16.57,-17.59,-17.49,0,*63
1483574479.25,36436,7.75,71282.8,-16.57,-17.49,-17.49,0,*61
1483574480.49,36437,7.75,71290.0,-16.55,-17.49,-17.45,0,*6E
1483574481.75,36438,7.75,71276.3,-16.57,-17.73,-17.63,0,*6E
1483574483.04,36439,7.75,71266.8,-16.57,-17.93,-17.93,0,*6E
1483574484.25,36440,7.75,71278.8,-16.55,-17.49,-17.49,0,*62
1483574485.49,36441,7.75,71272.5,-16.57,-17.49,-17.49,0,*61
1483574486.78,36442,7.75,71280.8,-16.57,-17.59,-17.59,0,*62
1483574488.07,36443,7.75,71294.3,-16.57,-17.59,-17.59,0,*63
1483574489.3,36444,7.75,71288.5,-16.55,-17.63,-17.73,0,*67
1483574490.56,36445,7.75,71298.3,-16.55,-18.01,-17.93,0,*63
1483574491.83,36446,7.75,71298.0,-16.57,-17.93,-17.87,0,*63
1483574493.12,36447,7.75,71282.3,-16.57,-17.93,-17.93,0,*67
1483574494.4,36448,7.75,71268.0,-16.57,-18.01,-17.93,0,*6C
1483574495.69,36449,7.75,71264.5,-16.57,-18.01,-18.01,0,*69
1483574496.94,36450,7.75,71276.3,-16.57,-18.21,-18.07,0,*65
1483574498.15,36451,7.75,71266.5,-16.59,-18.25,-18.21,0,*6A
1483574499.37,36452,7.75,71262.0,-16.59,-18.07,-18.07,0,*6D
1483574500.58,36453,7.75,71258.0,-16.59,-18.21,-18.21,0,*6C
1483574501.83,36454,7.75,71238.0,-16.59,-18.25,-18.35,0,*6A
1483574503.05,36455,7.75,71238.3,-16.59,-18.21,-18.11,0,*69
1483574504.28,36456,7.75,71252.0,-16.59,-17.83,-17.93,0,*68
1483574505.53,36457,7.75,71256.5,-16.59,-17.93,-17.83,0,*69
1483574506.78,36458,7.75,71254.5,-16.61,-17.83,-17.83,0,*6C
1483574507.99,36459,7.75,71254.0,-16.59,-17.69,-17.69,0,*66
1483574509.26,36460,7.75,71260.0,-16.59,-17.55,-17.63,0,*69
1483574510.54,36461,7.75,71260.5,-16.61,-17.63,-17.63,0,*66
1483574511.8,36462,7.75,71266.8,-16.59,-17.63,-17.55,0,*6B
1483574513.06,36463,7.75,71278.0,-16.59,-17.55,-17.55,0,*6F
1483574514.33,36464,7.75,71262.5,-16.59,-17.55,-17.63,0,*6D
1483574515.59,36465,7.75,71248.8,-16.59,-17.63,-17.55,0,*6C
1483574516.85,36466,7.75,71256.8,-16.59,-17.55,-17.55,0,*6A
1483574518.12,36467,7.75,71260.0,-16.59,-17.55,-17.55,0,*6B
1483574519.38,36468,7.75,71268.5,-16.59,-17.55,-17.55,0,*64
1483574520.67,36469,7.75,71268.5,-16.57,-17.59,-17.59,0,*6B
1483574521.91,36470,7.75,71260.3,-16.59,-17.69,-17.63,0,*67
1483574523.17,36471,7.75,71250.3,-16.59,-17.79,-17.79,0,*6C
1483574524.42,36472,7.75,71246.0,-16.59,-17.93,-17.83,0,*6E
1483574525.66,36473,7.75,71228.3,-16.59,-17.79,-17.69,0,*6F
1483574526.94,36474,7.75,71248.8,-16.57,-17.63,-17.59,0,*6E
1483574528.18,36475,7.75,71246.8,-16.59,-17.79,-17.69,0,*69
1483574529.4,36476,7.75,71244.0,-16.59,-17.69,-17.69,0,*6B
1483574530.66,36477,7.75,71240.8,-16.57,-17.73,-17.63,0,*65
1483574531.9,36478,7.75,71232.5,-16.57,-17.87,-17.73,0,*60
1483574533.16,36479,7.75,71244.3,-16.59,-17.79,-17.79,0,*64
1483574534.37,36480,7.75,71268.0,-16.59,-17.69,-17.69,0,*62
1483574535.64,36481,7.75,71238.8,-16.59,-17.93,-17.93,0,*63
1483574536.88,36482,7.75,71250.3,-16.59,-18.07,-17.97,0,*66
1483574538.13,36483,7.75,71236.8,-16.61,-18.07,-18.07,0,*6A
1483574539.4,36484,7.75,71168.5,-16.59,-17.97,-17.97,0,*66
1483574540.65,36485,7.75,71188.8,-16.59,-17.97,-17.83,0,*62
1483574541.87,36486,7.75,71182.5,-16.59,-17.83,-17.83,0,*64
1483574543.11,36487,7.75,71176.5,-16.59,-17.79,-17.69,0,*64
1483574544.37,36488,7.75,71206.5,-16.59,-17.63,-17.63,0,*6A
1483574545.63,36489,7.75,71244.3,-16.59,-17.63,-17.55,0,*6E
1483574546.9,36490,7.75,71244.3,-16.59,-17.55,-17.55,0,*63
1483574548.16,36491,7.75,71226.5,-16.59,-17.55,-17.55,0,*62
1483574549.42,36492,7.75,71254.3,-16.61,-17.55,-17.49,0,*67
1483574550.71,36493,7.75,71254.3,-16.57,-17.59,-17.45,0,*63
1483574551.95,36494,7.75,71244.3,-16.57,-17.49,-17.49,0,*69
1483574553.18,36495,7.75,71240.5,-16.59,-17.63,-17.49,0,*6E
1483574554.4,36496,7.75,71236.8,-16.59,-17.49,-17.49,0,*65
1483574555.66,36497,7.75,71246.0,-16.59,-17.55,-17.55,0,*64
1483574556.9,36498,7.75,71246.8,-16.57,-17.49,-17.49,0,*65
1483574558.12,36499,7.75,71246.0,-16.59,-17.49,-17.49,0,*6A
1483574559.36,36500,7.75,71248.0,-16.59,-17.55,-17.49,0,*66
1483574560.57,36501,7.75,71244.8,-16.59,-17.49,-17.49,0,*6A
1483574561.86,36502,7.75,71248.5,-16.57,-17.45,-17.45,0,*67
1483574563.13,36503,7.75,71264.8,-16.57,-17.49,-17.45,0,*6A
1483574564.37,36504,7.75,71282.8,-16.55,-17.49,-17.45,0,*6F
1483574565.66,36505,7.75,71278.5,-16.57,-17.59,-17.63,0,*69
1483574566.92,36506,7.75,71254.5,-16.57,-17.87,-17.79,0,*62
1483574568.19,36507,7.75,71248.3,-16.57,-17.79,-17.87,0,*63
1483574569.43,36508,7.75,71238.3,-16.59,-17.69,-17.63,0,*69
1483574570.69,36509,7.75,71222.8,-16.59,-17.93,-17.93,0,*62
1483574571.9,36510,7.75,71224.8,-16.59,-17.69,-17.69,0,*6A
1483574573.17,36511,7.75,71234.8,-16.59,-17.55,-17.55,0,*6B
1483574574.43,36512,7.75,71242.0,-16.59,-17.63,-17.63,0,*68
1483574575.69,36513,7.75,71248.8,-16.59,-17.63,-17.63,0,*69
1483574576.95,36514,7.75,71250.5,-16.59,-17.63,-17.55,0,*6B
1483574578.22,36515,7.75,71248.5,-16.59,-17.55,-17.55,0,*6F
1483574579.48,36516,7.75,71252.5,-16.57,-17.59,-17.49,0,*63
1483574580.71,36517,7.75,71268.8,-16.59,-17.79,-17.69,0,*6C
1483574581.93,36518,7.75,71262.3,-16.59,-17.83,-17.69,0,*66
1483574583.2,36519,7.75,71260.0,-16.59,-17.79,-17.79,0,*63
1483574584.43,36520,7.75,71292.3,-16.57,-17.73,-17.73,0,*67
1483574585.71,36521,7.75,71292.0,-16.61,-17.79,-17.79,0,*63
1483574586.98,36522,7.75,71298.5,-16.61,-17.69,-17.55,0,*6F
1483574588.21,36523,7.75,71276.0,-16.59,-17.55,-17.49,0,*67
1483574589.45,36524,7.75,71274.0,-16.59,-17.55,-17.49,0,*60
1483574590.69,36525,7.75,71294.8,-16.59,-17.55,-17.49,0,*61
1483574591.93,36526,7.75,71292.3,-16.59,-17.49,-17.45,0,*63
1483574593.15,36527,7.75,71292.5,-16.59,-17.49,-17.49,0,*6E
1483574594.44,36528,7.75,71306.8,-16.57,-17.45,-17.45,0,*6F
1483574595.74,36529,7.75,71310.3,-16.57,-17.45,-17.45,0,*6E
1483574596.98,36530,7.75,71302.5,-16.59,-17.49,-17.55,0,*65
1483574598.22,36531,7.75,71320.0,-16.59,-17.49,-17.45,0,*65
1483574599.46,36532,7.75,71326.5,-16.59,-17.55,-17.49,0,*67
1483574600.73,36533,7.75,71296.8,-16.59,-17.55,-17.55,0,*6B
1483574601.99,36534,7.75,71282.0,-16.59,-17.55,-17.55,0,*6C
1483574603.25,36535,7.75,71272.5,-16.59,-17.55,-17.55,0,*6D
1483574604.49,36536,7.75,71294.5,-16.57,-17.49,-17.49,0,*60
1483574605.73,36537,7.75,71290.5,-16.57,-17.49,-17.49,0,*61
1483574606.99,36538,7.75,71288.0,-16.59,-17.55,-17.63,0,*65
1483574608.29,36539,7.75,71280.3,-16.57,-17.45,-17.45,0,*6F
1483574609.59,36540,7.75,71270.5,-16.57,-17.45,-17.45,0,*61
1483574610.88,36541,7.75,71258.3,-16.57,-17.45,-17.45,0,*60
1483574612.15,36542,7.75,71282.8,-16.57,-17.49,-17.41,0,*6B
1483574613.44,36543,7.75,71268.0,-16.57,-17.45,-17.45,0,*62
1483574614.74,36544,7.75,71256.5,-16.57,-17.45,-17.45,0,*65
1483574616.01,36545,7.75,71278.8,-16.55,-17.45,-17.41,0,*62
1483574617.27,36546,7.75,71234.5,-16.57,-17.49,-17.45,0,*6B
1483574618.54,36547,7.75,71210.3,-16.55,-17.59,-17.59,0,*64
1483574619.79,36548,7.75,71232.0,-16.57,-17.63,-17.73,0,*68
1483574621.08,36549,7.75,71228.5,-16.57,-17.63,-17.63,0,*68
1483574622.32,36550,7.75,71250.5,-16.57,-17.49,-17.49,0,*60
1483574623.56,36551,7.75,71250.8,-16.57,-17.49,-17.49,0,*61
1483574624.79,36552,7.75,71236.8,-16.57,-17.49,-17.49,0,*62
1483574626.0,36553,7.75,71232.3,-16.55,-17.49,-17.49,0,*61
1483574627.3,36554,7.75,71218.5,-16.57,-17.45,-17.45,0,*64
1483574628.6,36555,7.75,71224.3,-16.57,-17.45,-17.45,0,*65
1483574629.89,36556,7.75,71222.0,-16.57,-17.45,-17.41,0,*62
1483574631.19,36557,7.75,71202.5,-16.57,-17.45,-17.45,0,*67
1483574632.45,36558,7.75,71228.8,-16.55,-17.45,-17.45,0,*6A
1483574633.75,36559,7.75,71240.8,-16.57,-17.45,-17.45,0,*69
1483574634.98,36560,7.75,71230.0,-16.55,-17.73,-17.79,0,*6B
1483574636.27,36561,7.75,71224.3,-16.57,-17.79,-17.79,0,*62
1483574637.55,36562,7.75,71230.0,-16.57,-17.63,-17.63,0,*61
1483574638.79,36563,7.75,71240.8,-16.55,-17.73,-17.59,0,*6A
1483574640.08,36564,7.75,71238.0,-16.57,-17.59,-17.63,0,*6E
1483574641.32,36565,7.75,71238.0,-16.57,-17.49,-17.49,0,*66
1483574642.56,36566,7.75,71238.3,-16.57,-17.49,-17.49,0,*65
1483574643.79,36567,7.75,71238.0,-16.57,-17.49,-17.49,0,*64
1483574645.06,36568,7.75,71234.3,-16.59,-17.55,-17.63,0,*60
1483574646.32,36569,7.75,71236.5,-16.59,-17.63,-17.55,0,*61
1483574647.58,36570,7.75,71252.5,-16.57,-17.59,-17.49,0,*63
1483574648.85,36571,7.75,71254.0,-16.57,-17.49,-17.59,0,*62
1483574650.06,36572,7.75,71258.3,-16.55,-17.49,-17.49,0,*62
1483574651.3,36573,7.75,71272.8,-16.57,-17.49,-17.49,0,*61
1483574652.54,36574,7.75,71276.3,-16.57,-17.49,-17.49,0,*66
1483574653.75,36575,7.75,71288.8,-16.59,-17.49,-17.49,0,*69
1483574655.05,36576,7.75,71306.0,-16.57,-17.45,-17.45,0,*64
1483574656.28,36577,7.75,71302.5,-16.57,-17.49,-17.49,0,*65
1483574657.54,36578,7.75,71312.3,-16.57,-17.63,-17.73,0,*6B
1483574658.81,36579,7.75,71296.3,-16.57,-17.79,-17.87,0,*6A
1483574660.09,36580,7.75,71280.8,-16.57,-17.79,-17.79,0,*6D
1483574661.34,36581,7.75,71280.5,-16.57,-17.87,-17.87,0,*6C
1483574662.62,36582,7.75,71282.5,-16.57,-17.79,-17.79,0,*6F
1483574663.89,36583,7.75,71274.3,-16.57,-17.87,-17.79,0,*6F
1483574665.13,36584,7.75,71262.8,-16.57,-17.87,-17.87,0,*69
1483574666.38,36585,7.75,71264.5,-16.59,-17.83,-17.79,0,*63
1483574667.64,36586,7.75,71268.0,-16.59,-17.93,-17.79,0,*61
1483574668.88,36587,7.75,71278.5,-16.59,-17.83,-17.93,0,*65
1483574670.13,36588,7.75,71272.5,-16.59,-18.07,-17.97,0,*6D
1483574671.37,36589,7.75,71264.8,-16.61,-18.21,-18.07,0,*65
1483574672.58,36590,7.75,71268.0,-16.59,-18.11,-18.07,0,*65
1483574673.83,36591,7.75,71276.0,-16.61,-18.07,-18.07,0,*68
1483574675.08,36592,7.75,71280.3,-16.59,-17.97,-17.83,0,*65
1483574676.3,36593,7.75,71280.0,-16.59,-17.83,-17.69,0,*65
1483574677.54,36594,7.75,71284.5,-16.61,-17.69,-17.69,0,*6D
1483574678.82,36595,7.75,71272.5,-16.61,-17.63,-17.63,0,*6C
1483574680.1,36596,7.75,71276.5,-16.61,-17.79,-17.79,0,*6F
1483574681.39,36597,7.75,71276.5,-16.61,-17.63,-17.63,0,*6E
1483574682.68,36598,7.75,71274.0,-16.61,-17.55,-17.55,0,*61
1483574683.96,36599,7.75,71264.5,-16.61,-17.93,-17.93,0,*60
1483574685.23,36600,7.75,71256.5,-16.61,-18.07,-17.97,0,*65
1483574686.5,36601,7.75,71256.8,-16.61,-17.97,-17.83,0,*67
1483574687.75,36602,7.75,71258.3,-16.61,-18.07,-18.07,0,*61
1483574688.96,36603,7.75,71258.0,-16.63,-17.73,-17.87,0,*69
1483574690.23,36604,7.75,71260.3,-16.63,-17.97,-17.97,0,*65
1483574691.44,36605,7.75,71262.3,-16.63,-17.69,-17.73,0,*6F
1483574692.73,36606,7.75,71268.8,-16.61,-17.63,-17.63,0,*65
1483574694.02,36607,7.75,71272.0,-16.61,-17.55,-17.55,0,*64
1483574695.28,36608,7.75,71268.5,-16.61,-17.55,-17.49,0,*66
1483574696.54,36609,7.75,71276.3,-16.63,-17.59,-17.55,0,*64
1483574697.78,36610,7.75,71276.5,-16.63,-17.69,-17.59,0,*63
1483574699.04,36611,7.75,71268.8,-16.63,-17.59,-17.55,0,*6D
1483574700.33,36612,7.75,71290.8,-16.61,-17.55,-17.55,0,*60
1483574701.59,36613,7.75,71298.5,-16.61,-17.45,-17.49,0,*6D
1483574702.88,36614,7.75,71278.5,-16.61,-17.63,-17.55,0,*63
1483574704.14,36615,7.75,71244.3,-16.61,-17.69,-17.79,0,*66
1483574705.4,36616,7.75,71206.3,-16.59,-17.93,-17.93,0,*6F
1483574706.67,36617,7.75,71212.8,-16.61,-17.83,-17.79,0,*60
1483574707.91,36618,7.75,71222.0,-16.61,-17.69,-17.69,0,*6A
1483574709.15,36619,7.75,71238.3,-16.59,-17.93,-17.83,0,*61
1483574710.37,36620,7.75,71250.0,-16.63,-17.87,-17.87,0,*63
1483574711.62,36621,7.75,71292.5,-16.61,-17.83,-17.83,0,*60
1483574712.9,36622,7.75,71278.5,-16.61,-17.93,-17.93,0,*63
1483574714.19,36623,7.75,71274.3,-16.61,-17.93,-17.79,0,*66
1483574715.46,36624,7.75,71282.3,-16.61,-17.83,-17.93,0,*64
1483574716.7,36625,7.75,71288.3,-16.61,-18.07,-18.07,0,*64
1483574717.94,36626,7.75,71286.0,-16.61,-18.07,-18.11,0,*60
1483574719.18,36627,7.75,71274.0,-16.61,-18.21,-18.21,0,*66
1483574720.42,36628,7.75,71256.0,-16.61,-18.21,-18.21,0,*69
1483574721.68,36629,7.75,71244.8,-16.65,-18.25,-18.31,0,*69
1483574722.89,36630,7.75,71238.0,-16.63,-18.17,-18.17,0,*62
1483574724.16,36631,7.75,71252.3,-16.63,-18.01,-18.01,0,*63
1483574725.4,36632,7.75,71260.8,-16.63,-18.01,-18.11,0,*61
1483574726.69,36633,7.75,71266.8,-16.65,-18.01,-18.01,0,*67
1483574727.94,36634,7.75,71268.3,-16.65,-17.87,-17.83,0,*64
1483574729.21,36635,7.75,71272.8,-16.63,-17.97,-17.97,0,*67
1483574730.42,36636,7.75,71274.3,-16.63,-17.87,-17.87,0,*64
1483574731.7,36637,7.75,71278.0,-16.63,-17.97,-17.97,0,*65
1483574732.91,36638,7.75,71262.5,-16.63,-18.17,-18.17,0,*6A
1483574734.2,36639,7.75,71210.3,-16.65,-18.31,-18.31,0,*6D
1483574735.43,36640,7.75,71170.5,-16.65,-18.25,-18.25,0,*63
1483574736.67,36641,7.75,71202.0,-16.65,-18.41,-18.41,0,*62
1483574737.96,36642,7.75,71220.3,-16.65,-17.97,-17.97,0,*61
1483574739.25,36643,7.75,71198.3,-16.65,-18.01,-17.97,0,*60
1483574740.47,36644,7.75,71180.5,-16.63,-17.83,-17.83,0,*61
1483574741.71,36645,7.75,71186.0,-16.65,-17.73,-17.73,0,*66
1483574742.93,36646,7.75,71240.8,-16.63,-17.83,-17.83,0,*63
1483574744.17,36647,7.75,71230.0,-16.65,-18.11,-18.11,0,*64
1483574745.4,36648,7.75,71186.3,-16.65,-18.25,-18.17,0,*6A
1483574746.63,36649,7.75,71138.3,-16.65,-18.25,-18.25,0,*6A
1483574747.87,36650,7.75,71162.0,-16.65,-17.87,-17.83,0,*66
1483574749.14,36651,7.75,71158.8,-16.65,-18.01,-17.87,0,*62
1483574750.38,36652,7.75,71166.5,-16.65,-18.11,-18.11,0,*60
1483574751.62,36653,7.75,71176.0,-16.67,-18.07,-18.01,0,*65
1483574752.86,36654,7.75,71170.0,-16.65,-17.73,-17.69,0,*6D
1483574754.1,36655,7.75,71148.5,-16.65,-17.73,-17.83,0,*68
1483574755.33,36656,7.75,71156.0,-16.65,-17.73,-17.73,0,*64
1483574756.55,36657,7.75,71178.0,-16.67,-17.87,-17.73,0,*6C
1483574757.82,36658,7.75,71180.8,-16.67,-18.01,-18.01,0,*68
1483574759.09,36659,7.75,71202.3,-16.65,-17.97,-17.87,0,*6A
1483574760.36,36660,7.75,71230.0,-16.65,-17.97,-17.87,0,*60
1483574761.6,36661,7.75,71246.0,-16.67,-18.01,-18.07,0,*64
1483574762.87,36662,7.75,71276.8,-16.67,-18.01,-18.01,0,*61
1483574764.13,36663,7.75,71270.0,-16.67,-17.93,-17.93,0,*60
1483574765.38,36664,7.75,71274.8,-16.67,-17.93,-17.87,0,*62
1483574766.64,36665,7.75,71270.5,-16.67,-17.93,-18.01,0,*62
1483574767.91,36666,7.75,71266.8,-16.67,-17.93,-17.93,0,*65
1483574769.14,36667,7.75,71284.3,-16.67,-17.79,-17.73,0,*6E
1483574770.38,36668,7.75,71292.5,-16.67,-17.87,-17.93,0,*6E
1483574771.62,36669,7.75,71302.3,-16.67,-17.87,-17.93,0,*6F
1483574772.89,36670,7.75,71286.0,-16.67,-18.01,-18.01,0,*62
1483574774.13,36671,7.75,71274.3,-16.67,-18.07,-18.01,0,*65
1483574775.37,36672,7.75,71266.0,-16.67,-18.01,-18.17,0,*67
1483574776.59,36673,7.75,71288.8,-16.67,-18.07,-18.07,0,*61
1483574777.88,36674,7.75,71294.0,-16.69,-17.93,-17.93,0,*68
1483574779.1,36675,7.75,71288.0,-16.67,-18.07,-18.07,0,*67
1483574780.33,36676,7.75,71282.0,-16.69,-18.17,-18.17,0,*6A
1483574781.58,36677,7.75,71288.0,-16.67,-18.31,-18.21,0,*64
1483574782.82,36678,7.75,71310.0,-16.67,-18.31,-18.21,0,*6B
1483574784.06,36679,7.75,71304.5,-16.69,-18.21,-18.21,0,*65
1483574785.34,36680,7.75,71284.8,-16.67,-18.31,-18.31,0,*6D
1483574786.61,36681,7.75,71270.0,-16.69,-18.21,-18.31,0,*63
1483574787.91,36682,7.75,71270.0,-16.69,-18.31,-18.31,0,*61
1483574789.14,36683,7.75,71264.3,-16.69,-18.49,-18.49,0,*60
1483574790.38,36684,7.75,71272.3,-16.69,-18.49,-18.49,0,*67
1483574791.62,36685,7.75,71256.3,-16.73,-18.65,-18.65,0,*6D
1483574792.86,36686,7.75,71268.8,-16.73,-18.41,-18.41,0,*6E
1483574794.07,36687,7.75,71262.3,-16.67,-18.17,-18.17,0,*6A
1483574795.34,36688,7.75,71260.0,-16.73,-18.07,-17.93,0,*62
1483574796.62,36689,7.75,71264.0,-16.73,-17.93,-17.93,0,*61
1483574797.92,36690,7.75,71278.5,-16.73,-17.93,-17.97,0,*6D
1483574799.16,36691,7.75,71282.0,-16.73,-17.83,-17.83,0,*68
1483574800.43,36692,7.75,71296.0,-16.73,-17.93,-17.83,0,*6A
1483574801.68,36693,7.75,71292.3,-16.73,-18.07,-18.11,0,*6D
1483574802.92,36694,7.75,71254.5,-16.73,-18.25,-18.21,0,*69
1483574804.18,36695,7.75,71264.0,-16.73,-18.25,-18.35,0,*6D
1483574805.43,36696,7.75,71258.3,-16.75,-18.49,-18.35,0,*62
1483574806.69,36697,7.75,71278.5,-16.69,-18.45,-18.35,0,*62
1483574807.91,36698,7.75,71276.3,-16.75,-18.49,-18.49,0,*67
1483574809.15,36699,7.75,71222.8,-16.73,-18.41,-18.49,0,*68
1483574810.42,36700,7.75,71218.8,-16.73,-18.41,-18.55,0,*64
1483574811.69,36701,7.75,71224.0,-16.73,-18.41,-18.35,0,*63
1483574812.92,36702,7.75,71230.0,-16.73,-18.21,-18.21,0,*63
1483574814.17,36703,7.75,71224.3,-16.73,-18.07,-18.11,0,*65
1483574815.41,36704,7.75,71218.5,-16.73,-18.21,-18.21,0,*65
1483574816.64,36705,7.75,71228.3,-16.73,-18.25,-18.25,0,*64
1483574817.85,36706,7.75,71240.8,-16.75,-18.25,-18.25,0,*61
1483574819.07,36707,7.75,71256.3,-16.75,-18.11,-18.11,0,*60
1483574820.29,36708,7.75,71250.0,-16.75,-18.11,-18.11,0,*6F
1483574821.56,36709,7.75,71248.5,-16.75,-17.97,-17.97,0,*6E
1483574822.84,36710,7.75,71262.5,-16.75,-17.97,-17.97,0,*66
1483574824.11,36711,7.75,71274.5,-16.73,-18.07,-17.97,0,*67
1483574825.32,36712,7.75,71264.8,-16.75,-18.21,-18.21,0,*64
1483574826.53,36713,7.75,71264.8,-16.75,-18.25,-18.25,0,*65
1483574827.77,36714,7.75,71260.3,-16.73,-18.49,-18.49,0,*64
1483574828.99,36715,7.75,71252.5,-16.75,-18.41,-18.41,0,*63
1483574830.2,36716,7.75,71248.3,-16.75,-18.49,-18.49,0,*60
1483574831.41,36717,7.75,71224.0,-16.75,-18.41,-18.25,0,*63
1483574832.65,36718,7.75,71196.5,-16.75,-18.55,-18.49,0,*63
1483574833.94,36719,7.75,71184.5,-16.77,-18.55,-18.55,0,*6D
1483574835.22,36720,7.75,71180.5,-16.77,-18.59,-18.59,0,*67
1483574836.46,36721,7.75,71218.3,-16.77,-18.41,-18.25,0,*64
1483574837.76,36722,7.75,71236.3,-16.77,-18.01,-17.97,0,*65
1483574839.06,36723,7.75,71234.5,-16.77,-18.01,-17.97,0,*64
1483574840.3,36724,7.75,71230.0,-16.77,-18.17,-18.17,0,*63
1483574841.55,36725,7.75,71238.5,-16.79,-17.97,-17.87,0,*6D
1483574842.82,36726,7.75,71234.8,-16.79,-17.97,-17.97,0,*6F
1483574844.1,36727,7.75,71230.5,-16.77,-17.87,-17.97,0,*61
1483574845.37,36728,7.75,71270.0,-16.77,-17.97,-17.87,0,*6E
1483574846.67,36729,7.75,71266.0,-16.77,-18.01,-18.01,0,*6E
1483574847.94,36730,7.75,71246.0,-16.77,-18.01,-18.11,0,*67
1483574849.16,36731,7.75,71232.8,-16.75,-18.07,-18.07,0,*65
1483574850.43,36732,7.75,71234.0,-16.75,-17.97,-17.97,0,*66
1483574851.66,36733,7.75,71252.8,-16.75,-18.07,-18.07,0,*67
1483574852.9,36734,7.75,71266.3,-16.75,-17.93,-17.83,0,*61
1483574854.14,36735,7.75,71272.0,-16.75,-17.79,-17.69,0,*60
1483574855.36,36736,7.75,71274.0,-16.75,-17.69,-17.69,0,*62
1483574856.6,36737,7.75,71276.3,-16.77,-17.73,-17.73,0,*61
1483574857.86,36738,7.75,71276.8,-16.75,-17.97,-17.93,0,*68
1483574859.11,36739,7.75,71270.8,-16.75,-17.97,-18.07,0,*6B
1483574860.38,36740,7.75,71268.3,-16.75,-17.93,-17.97,0,*67
1483574861.66,36741,7.75,71264.8,-16.75,-17.97,-17.97,0,*62
1483574862.9,36742,7.75,71270.5,-16.75,-17.93,-17.83,0,*60
1483574864.15,36743,7.75,71268.0,-16.75,-17.93,-17.83,0,*61
1483574865.4,36744,7.75,71274.0,-16.75,-17.93,-17.83,0,*66
1483574866.69,36745,7.75,71276.8,-16.73,-17.97,-17.93,0,*64
1483574867.94,36746,7.75,71276.8,-16.75,-17.97,-17.83,0,*60
1483574869.18,36747,7.75,71282.5,-16.75,-18.07,-17.97,0,*62
1483574870.43,36748,7.75,71284.0,-16.75,-17.83,-17.93,0,*6A
1483574871.65,36749,7.75,71290.3,-16.75,-17.83,-17.83,0,*6A
1483574872.9,36750,7.75,71286.5,-16.73,-17.83,-17.83,0,*64
1483574874.12,36751,7.75,71296.0,-16.75,-17.83,-17.83,0,*63
1483574875.34,36752,7.75,71294.5,-16.75,-17.83,-17.83,0,*60
1483574876.59,36753,7.75,71298.5,-16.75,-17.79,-17.83,0,*64
1483574877.83,36754,7.75,71310.0,-16.75,-17.69,-17.79,0,*67
1483574879.09,36755,7.75,71312.3,-16.75,-17.79,-17.79,0,*67
1483574880.31,36756,7.75,71300.0,-16.75,-18.07,-18.07,0,*64
1483574881.56,36757,7.75,71308.5,-16.75,-17.97,-18.07,0,*63
1483574882.76,36758,7.75,71316.8,-16.75,-18.25,-18.25,0,*6A
1483574883.98,36759,7.75,71266.5,-16.75,-18.49,-18.49,0,*6B
1483574885.23,36760,7.75,71206.5,-16.75,-18.41,-18.35,0,*62
1483574886.44,36761,7.75,71214.5,-16.75,-18.11,-18.21,0,*63
1483574887.69,36762,7.75,71218.0,-16.73,-18.07,-18.11,0,*62
1483574888.91,36763,7.75,71242.8,-16.75,-18.11,-18.11,0,*62
1483574890.21,36764,7.75,71258.8,-16.77,-18.31,-18.31,0,*67
1483574891.45,36765,7.75,71262.5,-16.77,-18.41,-18.41,0,*66
1483574892.7,36766,7.75,71252.5,-16.77,-18.41,-18.45,0,*61
1483574893.94,36767,7.75,71238.0,-16.77,-18.45,-18.41,0,*60
1483574895.18,36768,7.75,71230.0,-16.77,-18.41,-18.41,0,*6B
1483574896.42,36769,7.75,71210.5,-16.79,-18.31,-18.41,0,*63
1483574897.7,36770,7.75,71204.5,-16.77,-18.41,-18.31,0,*65
1483574898.94,36771,7.75,71210.3,-16.79,-18.45,-18.55,0,*6C
1483574900.15,36772,7.75,71200.5,-16.79,-18.45,-18.41,0,*6A